IK0AOC Weather Reports


time (UTC)temp
F
wind
direction
speed
knots
gust
knots
rain 1hr
in
rain 24hr
in
rain mn
in
humidity
%
barometer
mb
20260507073505 66 99 4.3 10.4 0.00 0.05 0.02 70 1013.9
20260507073008 68 113 0.9 7.0 0.00 0.05 0.02 71 1013.8
20260507072505 67 188 0.9 4.3 0.00 0.05 0.02 71 1013.8
20260507070505 66 127 0.0 0.9 0.00 0.05 0.02 74 1014.0
20260507070011 65 139 0.0 6.1 0.00 0.05 0.02 78 1013.9
20260507065005 65 134 0.0 7.0 0.00 0.05 0.02 76 1013.9
20260507064504 65 202 0.0 2.6 0.00 0.05 0.02 76 1013.9
20260507064006 65 204 0.9 7.0 0.00 0.05 0.02 76 1013.9
20260507063008 64 94 0.0 0.0 0.00 0.05 0.02 79 1013.8
20260507062505 64 92 0.0 2.6 0.00 0.05 0.02 78 1013.7
20260507062004 64 63 0.0 0.0 0.00 0.05 0.02 80 1013.6
20260507061005 63 40 0.0 0.0 0.00 0.05 0.02 82 1013.6
20260507060505 62 40 0.0 0.0 0.00 0.05 0.02 83 1013.6
20260507060008 62 40 0.0 4.3 0.00 0.05 0.02 84 1013.6
20260507055506 61 43 0.0 5.2 0.00 0.05 0.02 85 1013.5
20260507053008 60 46 0.0 2.6 0.00 0.05 0.02 87 1013.4
20260507051505 59 40 0.0 0.0 0.00 0.06 0.02 89 1013.4
20260507050008 59 45 0.0 4.3 0.00 0.06 0.02 90 1013.3
20260507043505 58 52 0.9 6.1 0.00 0.06 0.02 90 1013.3
20260507042005 58 51 0.0 0.0 0.00 0.06 0.02 90 1013.3
20260507041005 58 28 7.8 13.0 0.00 0.06 0.02 90 1013.2
20260507040008 58 42 0.9 8.7 0.00 0.06 0.02 91 1013.2
20260507035004 58 49 2.6 6.1 0.00 0.06 0.02 91 1013.2
20260507033007 58 63 0.0 4.3 0.00 0.06 0.02 91 1013.3
20260507032004 58 42 0.0 4.3 0.00 0.06 0.02 91 1013.3
20260507030504 57 51 0.0 10.4 0.00 0.06 0.02 91 1013.3
20260507025505 57 28 7.0 15.6 0.00 0.06 0.02 91 1013.2
20260507024504 58 31 12.2 20.9 0.01 0.06 0.02 91 1013.2
20260507024005 58 37 7.8 15.6 0.01 0.06 0.02 91 1013.2
20260507023007 58 38 10.4 17.4 0.02 0.06 0.02 91 1013.2
20260507022006 58 39 5.2 15.6 0.02 0.06 0.02 91 1013.2
20260507021505 58 52 5.2 15.6 0.02 0.06 0.02 91 1013.2
20260507021006 58 42 7.8 13.9 0.02 0.06 0.02 91 1013.3
20260507015005 58 49 6.1 13.9 0.02 0.06 0.02 90 1013.3
20260507013505 58 36 0.0 8.7 0.02 0.06 0.02 90 1013.3
20260507013008 58 36 4.3 11.3 0.01 0.05 0.01 90 1013.3
20260507012506 58 35 4.3 10.4 0.01 0.05 0.01 90 1013.1
20260507010505 58 40 7.0 11.3 0.00 0.04 0.00 89 1013.1
20260507010008 58 43 4.3 10.4 0.00 0.04 0.00 89 1013.3
20260507005506 58 59 0.9 4.3 0.00 0.04 0.00 89 1013.3
20260507004006 58 59 0.0 0.0 0.00 0.04 0.00 89 1013.4
20260507003505 58 59 0.0 0.0 0.00 0.04 0.00 89 1013.4
20260507002005 58 71 0.9 2.6 0.00 0.04 0.00 90 1013.2
20260507001506 58 71 1.7 7.8 0.00 0.04 0.00 89 1013.3
20260507000505 58 104 2.6 14.8 0.00 0.04 0.00 90 1013.2
20260507000008 58 99 6.1 26.9 0.00 0.04 0.00 90 1013.2
20260506235506 59 67 1.7 13.0 0.00 0.04 0.00 90 1013.4
20260506234505 59 123 2.6 15.6 0.00 0.04 0.00 89 1013.5
20260506234005 59 163 1.7 18.2 0.00 0.04 0.00 89 1013.5
20260506233008 59 131 10.4 27.8 0.00 0.04 0.00 88 1013.5
20260506232005 60 136 8.7 24.3 0.00 0.04 0.00 88 1013.4
20260506230505 60 117 5.2 19.1 0.00 0.04 0.00 85 1013.4
20260506230008 60 140 10.4 22.6 0.00 0.04 0.00 84 1013.3
20260506225505 60 121 3.5 10.4 0.00 0.04 0.00 82 1013.3
20260506223504 61 136 3.5 13.0 0.00 0.04 0.00 81 1013.2
20260506223007 61 116 2.6 11.3 0.00 0.04 0.00 81 1013.2
20260506222505 61 127 2.6 7.0 0.00 0.04 0.00 82 1013.2
20260506222005 61 134 6.1 18.2 0.00 0.04 0.00 82 1013.2
20260506221006 61 171 0.9 7.0 0.00 0.04 0.00 83 1013.2
20260506220505 61 140 1.7 11.3 0.00 0.04 0.00 83 1013.2
20260506220008 61 123 2.6 13.9 0.00 0.04 0.00 84 1013.2
20260506215505 61 157 2.6 12.2 0.00 0.04 0.04 84 1013.2
20260506213504 61 151 0.9 13.9 0.01 0.04 0.04 84 1013.3
20260506213004 61 129 1.7 13.0 0.01 0.04 0.04 85 1013.3
20260506212005 60 145 2.6 12.2 0.02 0.04 0.04 85 1013.3
20260506211005 60 140 4.3 14.8 0.02 0.04 0.04 86 1013.3
20260506210505 61 155 5.2 19.1 0.02 0.04 0.04 86 1013.3
20260506210004 60 156 4.3 14.8 0.02 0.04 0.04 86 1013.4
20260506205005 61 142 2.6 10.4 0.02 0.04 0.04 85 1013.4
20260506203504 61 149 5.2 12.2 0.02 0.03 0.03 84 1013.5
20260506203005 61 167 2.6 12.2 0.02 0.03 0.03 84 1013.5
20260506200505 61 156 1.7 13.0 0.01 0.02 0.02 82 1013.4
20260506194005 63 178 3.5 11.3 0.00 0.02 0.02 77 1013.4
20260506193504 63 136 4.3 18.2 0.00 0.02 0.02 76 1013.3
20260506192504 63 150 6.1 17.4 0.00 0.02 0.02 74 1013.3
20260506192004 64 135 6.1 25.2 0.00 0.02 0.02 73 1013.3
20260506190008 64 156 6.1 15.6 0.00 0.02 0.02 71 1013.0
20260506185004 64 148 2.6 13.9 0.00 0.02 0.02 71 1012.8
20260506184005 64 129 5.2 14.8 0.00 0.02 0.02 71 1012.8
20260506182505 64 151 5.2 22.6 0.00 0.02 0.02 73 1012.7
20260506182005 64 145 4.3 14.8 0.00 0.02 0.02 74 1012.7
20260506181504 64 132 2.6 12.2 0.00 0.02 0.02 74 1012.7
20260506181005 64 168 0.0 17.4 0.00 0.02 0.02 75 1012.7
20260506180008 65 149 2.6 10.4 0.00 0.02 0.02 75 1012.8
20260506174504 65 158 1.7 12.2 0.00 0.02 0.02 75 1012.7
20260506174005 65 147 1.7 13.9 0.00 0.02 0.02 74 1012.7
20260506173504 65 170 8.7 19.1 0.00 0.02 0.02 74 1012.7
20260506173008 65 150 2.6 10.4 0.00 0.02 0.02 75 1012.7
20260506170505 64 166 8.7 22.6 0.00 0.02 0.02 76 1012.8
20260506170008 65 167 7.8 22.6 0.00 0.02 0.02 76 1012.8
20260506165506 64 165 7.8 22.6 0.00 0.02 0.02 76 1012.9
20260506165006 65 176 4.3 19.1 0.00 0.02 0.02 76 1012.9
20260506164505 65 178 3.5 20.0 0.00 0.02 0.02 76 1012.8
20260506163505 65 165 7.0 24.3 0.00 0.02 0.02 76 1013.0
20260506163009 65 184 7.8 22.6 0.00 0.02 0.02 75 1013.0
20260506162506 65 184 7.8 20.0 0.00 0.02 0.02 74 1012.9
20260506154505 65 148 11.3 20.0 0.00 0.02 0.02 72 1012.9
20260506153505 66 170 10.4 21.7 0.00 0.02 0.02 72 1013.1
20260506153008 66 170 9.6 22.6 0.00 0.02 0.02 71 1013.0
20260506152005 65 160 9.6 19.1 0.00 0.02 0.02 72 1012.9
20260506151505 65 148 4.3 13.0 0.00 0.02 0.02 73 1012.9
20260506145505 65 180 8.7 25.2 0.00 0.02 0.02 75 1013.1
20260506144505 66 176 15.6 41.7 0.00 0.02 0.02 72 1012.9
20260506144006 66 169 17.4 34.8 0.00 0.02 0.02 71 1012.9
20260506142505 66 136 8.7 40.0 0.00 0.02 0.02 73 1013.1
20260506142005 66 161 8.7 24.3 0.00 0.02 0.02 73 1013.0
20260506141006 66 166 14.8 32.2 0.00 0.02 0.02 72 1013.1
20260506140505 66 148 11.3 32.2 0.00 0.02 0.02 71 1013.1
20260506140008 67 143 15.6 34.8 0.00 0.02 0.02 71 1013.1
20260506135004 67 163 17.4 44.3 0.00 0.02 0.02 71 1013.1
20260506132505 67 197 14.8 34.8 0.00 0.02 0.02 70 1013.3
20260506132005 67 164 11.3 32.2 0.00 0.02 0.02 68 1013.3
20260506131504 67 129 14.8 42.6 0.00 0.02 0.02 69 1013.3
20260506130505 67 182 16.5 40.0 0.00 0.02 0.02 69 1013.4
20260506125005 68 175 4.3 30.4 0.00 0.02 0.02 67 1013.2
20260506124006 68 224 12.2 28.7 0.00 0.02 0.02 68 1013.3
20260506123505 68 188 5.2 28.7 0.00 0.02 0.02 67 1013.3
20260506123008 68 180 2.6 26.9 0.00 0.02 0.02 66 1013.3
20260506122506 68 170 12.2 30.4 0.00 0.02 0.02 65 1013.3
20260506121505 68 180 19.1 42.6 0.00 0.02 0.02 63 1013.3
20260506120008 69 191 8.7 39.1 0.00 0.02 0.02 61 1013.4
20260506115505 69 185 20.0 42.6 0.00 0.02 0.02 61 1013.3
20260506114505 69 180 15.6 50.4 0.00 0.02 0.02 62 1013.5
20260506114007 69 177 22.6 48.7 0.00 0.02 0.02 62 1013.3
20260506113505 69 203 20.9 46.1 0.00 0.02 0.02 62 1013.3
20260506113008 69 172 14.8 35.6 0.00 0.02 0.02 63 1013.3
20260506112505 69 167 20.9 37.4 0.00 0.02 0.02 62 1013.3
20260506105005 69 192 16.5 32.2 0.00 0.02 0.02 61 1013.5
20260506104504 69 189 26.1 46.1 0.00 0.02 0.02 58 1013.5
20260506104005 70 202 12.2 33.9 0.00 0.02 0.02 59 1013.5
20260506101005 69 164 19.1 46.1 0.00 0.02 0.02 52 1013.2
20260506100504 69 148 15.6 30.4 0.00 0.02 0.02 54 1013.2
20260506100008 70 164 7.8 32.2 0.00 0.02 0.02 57 1013.3
20260506095505 69 146 8.7 31.3 0.00 0.02 0.02 57 1013.4
20260506094504 68 164 13.9 37.4 0.00 0.02 0.02 58 1013.3
20260506094005 67 167 20.0 38.2 0.00 0.02 0.02 58 1013.3
20260506093007 67 157 20.0 40.0 0.00 0.02 0.02 62 1013.2
20260506092505 67 121 9.6 37.4 0.00 0.02 0.02 63 1013.2
20260506092005 67 134 10.4 35.6 0.00 0.02 0.02 65 1013.1
20260506091005 67 156 14.8 30.4 0.00 0.02 0.02 64 1013.1
20260506085004 65 127 14.8 37.4 0.00 0.02 0.02 68 1013.0
20260506084504 65 160 19.1 32.2 0.00 0.02 0.02 68 1013.0